Overview Statistics Trail Chart Weather Telemetry Raw packets
 

This is the latest recevied weather packets stored in our database for station/object PP5CFL-13. If no packets are shown the sender has not sent any weather packets the latest 10 day(s).

<< 57 58 59 60 61 62 63 >>
Time Temp. Humidity Pressure Rain* Wind** Luminosity Snow
1788273158 22.22° C 68% 1013 hPa - - - -
1788272858 22.22° C 68% 1013.1 hPa - - - -
1788272558 21.67° C 68% 1013 hPa - - - -
1788272258 22.22° C 69% 1013.2 hPa - - - -
1788271958 21.67° C 70% 1012.9 hPa - - - -
1788271658 22.22° C 68% 1012.7 hPa - - - -
1788271358 21.67° C 69% 1012.7 hPa - - - -
1788271058 21.67° C 71% 1012.8 hPa - - - -
1788270758 21.67° C 70% 1012.8 hPa - - - -
1788270458 21.67° C 70% 1012.9 hPa - - - -
1788270158 21.67° C 70% 1013 hPa - - - -
1788269858 21.67° C 70% 1013.2 hPa - - - -
1788269558 22.22° C 69% 1013.2 hPa - - - -
1788269258 22.22° C 70% 1013.3 hPa - - - -
1788268958 21.67° C 71% 1013.4 hPa - - - -
1788268658 21.67° C 73% 1013.3 hPa - - - -
1788268358 21.67° C 74% 1013.1 hPa - - - -
1788268058 21.67° C 75% 1013.1 hPa - - - -
1788267758 21.67° C 78% 1013 hPa - - - -
1788267458 21.67° C 79% 1013.1 hPa - - - -
1788267158 21.67° C 80% 1013.2 hPa - - - -
1788266858 21.67° C 82% 1013.2 hPa - - - -
1788266558 21.67° C 83% 1013 hPa - - - -
1788266258 21.11° C 84% 1012.8 hPa - - - -
1788265958 21.67° C 84% 1012.7 hPa - - - -

* Rain since midnight (hover to see other rain measurements)
** Current wind speed in m/s (hover to see current wind gust speed)